Location: Buffign�court
(47.8126°N, 6.0176°E)
Time: 19:05:42
(UTC+00:00)

USA 267 - Pass Details

Date: 16 June 2021
Orbit: 1102 x 1106 km, 123.0° (Epoch: 21 July)

Event Time Altitude Azimuth Distance (km) Brightness Sun altitude
Exits shadow 22:12:28 - 112° (ESE) 3,055 5.2 -16.3°
Reaches altitude 10° 22:12:43 10° 112° (ESE) 2,957 5.1 -16.3°
Maximum altitude 22:19:13 73° 30° (NNE) 1,151 3.4 -16.7°
Drops below altitude 10° 22:25:45 10° 307° (NW) 2,969 6.3 -17.0°
Sets 22:28:14 0° 305° (NW) 3,929 7.0 -17.2°
